This is the latest recevied weather packets stored in our database for station/object WA1TYB-13. If no packets are shown the sender has not sent any weather packets the latest 10 day(s).
| Time | Temp. | Humidity | Pressure | Rain* | Wind** | Luminosity | Snow |
|---|---|---|---|---|---|---|---|
| 1787960032 | 21.11° C | 45% | 1015.6 hPa | 21.59 mm | - | 20 W/m² | - |
| 1787959726 | 21.67° C | 35% | 1015.1 hPa | 14.99 mm | - | 17 W/m² | - |
| 1787959422 | 26.67° C | 26% | 1015 hPa | 0 mm | - | 15 W/m² | - |
| 1787959117 | 26.67° C | 25% | 1014.4 hPa | 0 mm | - | 19 W/m² | - |
| 1787958812 | 26.67° C | 29% | 1014.3 hPa | 0 mm | - | 49 W/m² | - |
| 1787958507 | 26.67° C | 27% | 1014.1 hPa | 0 mm | - | 88 W/m² | - |
| 1787958203 | 26.67° C | 27% | 1014.1 hPa | 0 mm | - | 95 W/m² | - |
| 1787957897 | 26.67° C | 30% | 1013.9 hPa | 0 mm | - | 114 W/m² | - |
| 1787957597 | 26.67° C | 30% | 1014.5 hPa | 0 mm | - | 121 W/m² | - |
| 1787957292 | 27.22° C | 27% | 1014.2 hPa | 0 mm | - | 153 W/m² | - |
| 1787956992 | 27.22° C | 26% | 1014 hPa | 0 mm | - | 134 W/m² | - |
| 1787956690 | 27.22° C | 30% | 1014.5 hPa | 0 mm | - | 116 W/m² | - |
| 1787956386 | 27.22° C | 25% | 1014.7 hPa | 0 mm | - | 128 W/m² | - |
| 1787956081 | 27.22° C | 28% | 1014.8 hPa | 0 mm | - | 164 W/m² | - |
| 1787955777 | 26.67° C | 32% | 1014.5 hPa | 0 mm | - | 517 W/m² | - |
| 1787955473 | 26.67° C | 31% | 1014.7 hPa | 0 mm | - | 144 W/m² | - |
| 1787955171 | 27.22° C | 30% | 1014.9 hPa | 0 mm | - | 324 W/m² | - |
| 1787954867 | 27.22° C | 31% | 1014.4 hPa | 0 mm | - | 494 W/m² | - |
| 1787954563 | 27.78° C | 30% | 1014.8 hPa | 0 mm | - | 562 W/m² | - |
| 1787954257 | 27.22° C | 29% | 1015 hPa | 0 mm | - | 488 W/m² | - |
| 1787953957 | 27.78° C | 27% | 1015 hPa | 0 mm | - | 212 W/m² | - |
| 1787953656 | 27.22° C | 29% | 1015.3 hPa | 0 mm | - | 520 W/m² | - |
| 1787953350 | 27.22° C | 28% | 1015.1 hPa | 0 mm | - | 237 W/m² | - |
| 1787953049 | 27.78° C | 27% | 1015.2 hPa | 0 mm | - | 442 W/m² | - |
| 1787952748 | 27.78° C | 27% | 1015 hPa | 0 mm | - | 418 W/m² | - |
* Rain latest hour (hover to see other rain measurements)
** Current wind speed in m/s (hover to see current wind gust speed)